Weather in Holbaek

Denmark     55°42′21″N   11°42′51″E
temp.,
°C
wind,
m/s
gust,
m/s
humid.,
%
clouds,
%
prec.,
mm/h
press.,
hPa
HPBL,
m
4 december, sat
sat401:00+5wsw7139116 2.5 994553
04:00+4wsw610935 0.0 994361
07:00+4wnw479251 0.0 996289
10:00+3wnw2388100 0.0 997423
13:00+4ssw118496 0.0 998392
16:00+4ese2284100 0.0 999269
19:00+3e6997100 0.0 1000386
22:00+3e81390100 0.1 1002641
5 december, sun
sun501:00+3e101687100 0.1 1002800
04:00+2e111783100 0.0 1004729
07:00+2e101681100 0.0 1007775
10:00+1e101780100 0.0 1009768
13:00+1e91479100 0.0 1011826
16:00+1ene91375100 0.0 1014807
19:00−1ene8137473 0.0 1016653
22:00−1ene6117890 0.0 1018582
6 december, mon
mon601:00−2ene61178100 0.0 1018496
04:00−2e6107687 0.0 1019445
07:00−2e61077100 0.0 1019418
10:00−2e5878100 0.0 1019379
13:000ese5880100 0.0 1017616
16:000ese698591 0.0 1015353
19:00+1se61173100 0.0 1014692
22:00+1se71278100 0.1 1012820
7 december, tue
tue701:00+1sse7127899 0.2 1011759
04:00+1se71179100 0.1 1010818
07:00+1se61190100 0.4 1010705
10:00+1se71190100 0.4 1011793
13:00+2se81181100 0.6 1011996
16:00+1se61081100 0.1 1012753
19:00+1se71184100 0.1 1012723
22:00+2se61184100 0.1 1012810
8 december, wed
wed801:00+1se71184100 0.2 1012782
04:00+1ese71288100 0.1 1011862
07:00+1se81391100 0.4 1011933
10:00+1ese91395100 0.5 10111051
13:00+1ese81392100 0.9 10111091
16:00+1ese91386100 0.3 1012994
19:00+1ese91469100 0.4 1013929
22:00+1ese91465100 0.0 1014851